STARLINK-34936, 65898

Orbit data source: Space-Track

STARLINK-34936, 65898 is a payload satellite owned by SpaceX/Seattle (US) in LEO that was launched on Tue, 07 Oct 2025 UTC via an FALCON 9 launch vehicle from the Air Force Eastern Test Range (AFETR). Payload-class satellites include a variety of spacecraft equipped with specific instruments for various scientific and technological missions. These include communications satellites like Starlink; space stations such as the ISS; scientific satellites like the Hubble; Earth observation satellites from companies like Planet Labs, Umbra, and HawkEye 360; GPS; miniature CubeSats for education and research; and military/defense satellites.

Loading next visibility...
Identifier
65898, 2025-224S
Orbit
LEO
Country
Flag of USUS
Related business
Manufacturer
SpaceX/Seattle
Mission
Operational spacecraft
Bus & Motor
STARLINK V2MO, Unknown motor
Mass
575 kg wet, ~530 kg dry
Launch date (UTC)
2025-10-07 (2 months ago)
Launch vehicle
FALCON 9
Launch site
Air Force Eastern Test Range (AFETR)
Object type
Payload
Rocket body
Debris
Shape & HBR
Unknown shape, 17.7 m
Radar Cross Section
RCS unknown

Expand to show TLE details & history
Last TLE update: 15 hours ago

TLE from 15 hours ago
0 STARLINK-34936
1 65898U 25224S   25340.60379052  .00048042  00000-0  16224-2 0  9992
2 65898  53.1612  83.6282 0001269 106.6351 253.4790 15.30226158 10627
Epoch: 2025-12-06T14:29Z
TLE epoch observation values (Epoch: 2025-12-06T14:29:27.500Z)
Latitude
0.00002°
Longitude
150.63448°
Altitude
476.284 km
Speed
7.629 km/s
True Right ascension
05h 34m 30s
True Declination
0° 00' 00"
Sunlit
Object was in full shadow at epoch
Visualization orbit readout
Latitude
Unknown
Longitude
Unknown
Altitude
Unknown
Speed
Unknown
Apparent Right ascension
Unknown
Apparent Declination
Unknown
Sunlit
N/A
Visualization observer readout
Local Sidereal Time
03:15:08
Azimuth
Unknown
Elevation
Unknown
Doppler factor
Unknown
Orbital elements
Apogee altitude
476.263 km
Perigee altitude
474.523 km
Semi-major axis
6,853.53 km
Eccentricity
0.00013
Inclination
53.1612°
RAAN
83.6282°
Arg. of periapsis
106.6351°
True anomaly
253.46506°
Mean anomaly
253.479°
Eccentric anomaly
253.47203°
Mean motion
3.82535 °/min
Orbital period
94.11 mins
BSTAR
0.0016224
Loading maneuver chart data...
Computing Atmospheric mass density...
Loading historical data...
Loading historical data...
Loading historical data...
Loading historical data...
Loading historical data...
Loading historical data...
Loading historical data...

Documentation

Showing up to 5 results
|